TimeEDT,TemperatureF,Dew PointF,Humidity,Sea Level PressureIn,VisibilityMPH,Wind Direction,Wind SpeedMPH,Gust SpeedMPH,PrecipitationIn,Events,Conditions,WindDirDegrees,DateUTC
12:15 AM,30.9,25.7,81,30.04,10.0,North,-9999.0,-,N/A,,Overcast,0,2013-03-23 04:15:00
12:35 AM,30.6,25.0,80,30.04,10.0,North,-9999.0,-,N/A,,Overcast,0,2013-03-23 04:35:00
12:55 AM,30.6,25.9,83,30.04,10.0,North,-9999.0,-,N/A,,Overcast,0,2013-03-23 04:55:00
1:15 AM,30.9,25.9,82,30.03,10.0,North,-9999.0,-,N/A,,Overcast,0,2013-03-23 05:15:00
1:35 AM,31.5,26.6,82,30.03,10.0,North,-9999.0,-,N/A,,Overcast,0,2013-03-23 05:35:00
1:55 AM,31.8,25.5,78,30.03,10.0,North,-9999.0,-,N/A,,Overcast,0,2013-03-23 05:55:00
2:15 AM,32.0,25.7,78,30.03,10.0,North,-9999.0,-,N/A,,Overcast,0,2013-03-23 06:15:00
2:35 AM,32.0,26.4,80,30.03,10.0,North,-9999.0,-,N/A,,Overcast,0,2013-03-23 06:35:00
2:55 AM,32.5,26.1,77,30.03,10.0,North,-9999.0,-,N/A,,Overcast,0,2013-03-23 06:55:00
3:15 AM,32.4,25.5,76,30.03,10.0,North,-9999.0,-,N/A,,Overcast,0,2013-03-23 07:15:00
3:35 AM,32.9,23.9,69,30.01,10.0,North,-9999.0,-,N/A,,Overcast,0,2013-03-23 07:35:00
3:55 AM,32.9,24.4,71,30.02,10.0,North,-9999.0,-,N/A,,Overcast,0,2013-03-23 07:55:00
4:15 AM,32.7,25.0,73,30.02,10.0,North,-9999.0,-,N/A,,Overcast,0,2013-03-23 08:15:00
4:35 AM,32.9,25.9,75,30.02,10.0,North,-9999.0,-,N/A,,Overcast,0,2013-03-23 08:35:00
4:55 AM,32.9,25.5,74,30.02,10.0,North,-9999.0,-,N/A,,Overcast,0,2013-03-23 08:55:00
5:15 AM,32.9,26.4,77,30.02,10.0,North,-9999.0,-,N/A,,Overcast,0,2013-03-23 09:15:00
5:35 AM,33.4,25.7,73,30.01,10.0,North,-9999.0,-,N/A,,Overcast,0,2013-03-23 09:35:00
5:55 AM,33.1,25.3,73,30.01,10.0,North,-9999.0,-,N/A,,Overcast,0,2013-03-23 09:55:00
6:15 AM,33.1,26.2,76,30.03,10.0,North,-9999.0,-,N/A,,Overcast,0,2013-03-23 10:15:00
6:35 AM,33.3,26.2,75,30.03,10.0,North,-9999.0,-,N/A,,Overcast,0,2013-03-23 10:35:00
6:55 AM,33.8,25.7,72,30.02,10.0,North,-9999.0,-,N/A,,Overcast,0,2013-03-23 10:55:00
7:15 AM,33.8,25.7,72,30.02,10.0,North,-9999.0,-,N/A,,Overcast,0,2013-03-23 11:15:00
7:35 AM,33.8,25.5,72,30.03,10.0,North,-9999.0,-,N/A,,Overcast,0,2013-03-23 11:35:00
7:55 AM,34.0,25.7,72,30.04,10.0,North,-9999.0,-,N/A,,Overcast,0,2013-03-23 11:55:00
8:15 AM,34.0,26.2,73,30.06,10.0,North,-9999.0,-,N/A,,Overcast,0,2013-03-23 12:15:00
8:35 AM,34.9,26.2,71,30.05,10.0,North,-9999.0,-,N/A,,Overcast,0,2013-03-23 12:35:00
8:55 AM,35.4,25.5,67,30.06,10.0,North,-9999.0,-,N/A,,Overcast,0,2013-03-23 12:55:00
9:15 AM,36.7,25.5,64,30.06,10.0,North,-9999.0,-,N/A,,Overcast,0,2013-03-23 13:15:00
9:35 AM,37.6,25.2,61,30.06,10.0,North,-9999.0,-,N/A,,Overcast,0,2013-03-23 13:35:00
9:55 AM,38.7,24.6,57,30.06,10.0,North,-9999.0,-,N/A,,Overcast,0,2013-03-23 13:55:00
10:15 AM,39.2,24.6,56,30.06,10.0,North,-9999.0,-,N/A,,Overcast,0,2013-03-23 14:15:00
10:35 AM,40.3,22.5,49,30.05,10.0,North,-9999.0,-,N/A,,Overcast,0,2013-03-23 14:35:00
10:55 AM,41.2,23.2,49,30.05,10.0,North,-9999.0,-,N/A,,Overcast,0,2013-03-23 14:55:00
11:15 AM,41.9,21.4,44,30.05,10.0,North,-9999.0,-,N/A,,Overcast,0,2013-03-23 15:15:00
11:35 AM,42.6,20.8,42,30.06,10.0,North,-9999.0,-,N/A,,Overcast,0,2013-03-23 15:35:00
11:55 AM,43.2,21.2,42,30.06,10.0,North,-9999.0,-,N/A,,Overcast,0,2013-03-23 15:55:00
12:15 PM,43.0,20.1,40,30.05,10.0,North,-9999.0,-,N/A,,Overcast,0,2013-03-23 16:15:00
12:35 PM,44.4,21.0,39,30.05,10.0,North,-9999.0,-,N/A,,Overcast,0,2013-03-23 16:35:00
12:55 PM,45.0,20.1,37,30.04,10.0,North,-9999.0,-,N/A,,Overcast,0,2013-03-23 16:55:00
1:15 PM,45.5,19.8,36,30.03,10.0,North,-9999.0,-,N/A,,Overcast,0,2013-03-23 17:15:00
1:35 PM,45.5,20.7,37,30.03,10.0,North,-9999.0,-,N/A,,Overcast,0,2013-03-23 17:35:00
1:55 PM,46.0,20.7,37,30.03,10.0,North,-9999.0,-,N/A,,Overcast,0,2013-03-23 17:55:00
2:15 PM,47.7,22.3,37,30.03,10.0,North,-9999.0,-,N/A,,Overcast,0,2013-03-23 18:15:00
2:35 PM,47.5,23.0,38,30.02,10.0,North,-9999.0,-,N/A,,Overcast,0,2013-03-23 18:35:00
2:55 PM,49.8,23.9,36,30.02,10.0,North,-9999.0,-,N/A,,Overcast,0,2013-03-23 18:55:00
3:15 PM,50.5,24.1,36,30.01,10.0,North,-9999.0,-,N/A,,Overcast,0,2013-03-23 19:15:00
3:35 PM,50.9,25.0,36,30.00,10.0,North,-9999.0,-,N/A,,Overcast,0,2013-03-23 19:35:00
3:55 PM,51.8,25.3,36,30.00,10.0,North,-9999.0,-,N/A,,Overcast,0,2013-03-23 19:55:00
4:15 PM,50.9,25.0,36,29.99,10.0,North,-9999.0,-,N/A,,Overcast,0,2013-03-23 20:15:00
4:35 PM,50.7,25.7,38,29.99,10.0,North,-9999.0,-,N/A,,Mostly Cloudy,0,2013-03-23 20:35:00
4:55 PM,52.7,26.2,36,29.98,10.0,North,-9999.0,-,N/A,,Scattered Clouds,0,2013-03-23 20:55:00
5:15 PM,53.1,27.1,37,29.98,10.0,North,-9999.0,-,N/A,,Clear,0,2013-03-23 21:15:00
5:35 PM,52.7,27.3,38,29.98,10.0,North,-9999.0,-,N/A,,Clear,0,2013-03-23 21:35:00
5:55 PM,52.2,27.1,38,29.97,10.0,North,-9999.0,-,N/A,,Clear,0,2013-03-23 21:55:00
6:15 PM,51.4,27.0,39,29.97,10.0,North,-9999.0,-,N/A,,Clear,0,2013-03-23 22:15:00
6:35 PM,51.1,27.1,40,29.97,10.0,North,-9999.0,-,N/A,,Clear,0,2013-03-23 22:35:00
6:55 PM,49.5,27.0,42,29.97,10.0,North,-9999.0,-,N/A,,Clear,0,2013-03-23 22:55:00
7:15 PM,46.9,30.2,52,29.97,10.0,North,-9999.0,-,N/A,,Clear,0,2013-03-23 23:15:00
7:35 PM,44.2,31.5,61,29.98,10.0,North,-9999.0,-,N/A,,Clear,0,2013-03-23 23:35:00
7:55 PM,41.9,31.3,66,29.98,10.0,North,-9999.0,-,N/A,,Clear,0,2013-03-23 23:55:00
8:15 PM,40.5,31.5,70,29.97,10.0,North,-9999.0,-,N/A,,Clear,0,2013-03-24 00:15:00
8:35 PM,39.6,32.0,74,29.98,10.0,North,-9999.0,-,N/A,,Clear,0,2013-03-24 00:35:00
8:55 PM,38.7,31.1,74,29.98,10.0,North,-9999.0,-,N/A,,Clear,0,2013-03-24 00:55:00
9:15 PM,38.1,31.1,76,29.97,10.0,North,-9999.0,-,N/A,,Clear,0,2013-03-24 01:15:00
9:35 PM,37.6,32.0,80,29.98,10.0,North,-9999.0,-,N/A,,Clear,0,2013-03-24 01:35:00
9:55 PM,36.7,30.6,78,29.98,10.0,North,-9999.0,-,N/A,,Clear,0,2013-03-24 01:55:00
10:15 PM,35.8,30.4,81,29.98,10.0,North,-9999.0,-,N/A,,Clear,0,2013-03-24 02:15:00
10:35 PM,35.1,30.2,82,29.95,10.0,North,-9999.0,-,N/A,,Clear,0,2013-03-24 02:35:00
10:55 PM,34.2,30.0,85,29.95,10.0,North,-9999.0,-,N/A,,Clear,0,2013-03-24 02:55:00
11:15 PM,34.0,29.8,85,29.93,10.0,North,-9999.0,-,N/A,,Clear,0,2013-03-24 03:15:00
11:35 PM,33.3,29.8,87,29.91,10.0,North,-9999.0,-,N/A,,Clear,0,2013-03-24 03:35:00
11:55 PM,32.9,29.1,86,29.91,10.0,North,-9999.0,-,N/A,,Clear,0,2013-03-24 03:55:00